Temperature
15 16 16 16 17 17 17 17 17 17 17 17 17 17 17 17 17 17 16 16 16 16 16 16 16 16 16 16 16 16 16 16 15 15 15 15 15 15 15 15 15 15 15
16 16 16 16 16 17 17 17 17 17 17 17 16 16 16 16 16 16 16 16 16 16 16 16 16 16 16 16 16 15 15 15 15 15 15 15 15 15 15 15 15 15 15
16 16 16 16 16 16 16 16 16 16 16 16 16 16 16 16 16 16 16 16 16 16 16 16 16 16 16 15 15 15 15 15 15 15 15 15 15 15 15 15 15 15 15
15 16 16 16 16 16 16 16 16 16 16 16 16 16 16 16 16 16 16 16 16 16 16 16 16 16 15 15 15 15 15 15 15 15 15 15 15 14 14 14 14 15 15
15 15 15 16 16 16 16 16 16 16 16 16 16 16 15 15 15 15 15 15 15 15 15 15 15 15 15 15 15 15 15 15 15 14 14 14 14 14 14 14 14 14 14
15 15 15 15 15 15 15 15 15 15 15 15 15 15 15 15 15 15 15 15 15 15 15 15 15 15 15 15 15 15 15 15 15 14 14 14 14 14 14 14 14 14 14
15 15 15 15 15 15 15 15 15 15 15 15 15 15 15 15 15 15 15 15 15 15 15 15 15 15 15 15 15 15 15 15 15 14 14 14 14 14 14 14 14 14 14
15 15 15 15 15 15 15 15 15 15 15 15 15 15 15 15 15 14 14 14 14 14 14 14 15 15 15 15 15 15 15 14 14 14 14 14 14 14 14 14 14 14 14
14 14 14 14 14 14 15 15 15 15 15 15 15 15 14 14 14 14 14 14 14 14 14 14 14 14 14 14 14 14 14 14 14 14 14 14 14 14 14 14 14 14 14
14 14 14 14 14 14 14 14 14 14 14 14 14 14 14 14 14 14 14 14 14 14 14 14 14 14 14 14 14 14 14 14 14 14 14 14 14 14 14 14 14 14 14
14 14 14 14 14 14 14 14 14 14 14 14 14 14 14 14 14 13 13 13 13 13 13 13 13 13 14 13 13 13 14 14 14 14 14 14 14 14 14 14 14 14 14
13 13 13 14 14 14 14 14 14 14 13 13 13 13 13 13 13 13 13 13 13 13 13 13 13 13 13 13 13 13 13 13 13 13 13 14 14 14 14 14 14 14 14
13 13 13 13 13 13 13 13 13 13 13 13 13 13 13 13 13 13 13 13 13 13 13 13 13 13 13 13 13 13 13 13 13 13 13 13 13 13 13 13 13 13 13
13 13 13 13 13 13 13 13 13 13 13 13 13 13 13 13 13 13 12 12 12 12 12 12 13 13 12 12 13 13 13 12 13 13 13 13 13 13 13 13 13 13 13
13 13 13 13 13 13 13 13 13 13 13 13 12 12 12 12 12 12 12 12 12 12 12 12 12 12 12 12 12 12 12 12 12 12 12 12 12 12 12 12 12 13 13
12 12 13 13 13 13 13 13 12 12 12 12 12 12 12 12 12 12 12 12 12 12 12 12 12 12 12 12 12 12 12 12 12 12 12 12 12 12 12 12 12 12 12
12 12 12 12 12 12 12 12 12 12 12 12 12 12 12 12 11 11 11 11 11 11 11 11 11 11 12 11 12 11 11 11 11 11 11 11 11 11 11 11 12 12 12
12 12 12 12 12 12 12 12 12 12 12 11 11 11 11 11 11 11 11 11 11 11 11 11 11 11 11 11 11 11 11 11 11 11 11 11 11 11 11 11 11 11 11
12 12 12 12 12 12 12 12 11 11 11 11 11 11 11 11 11 10 10 10 10 10 10 10 11 11 11 11 11 11 10 10 10 10 10 10 10 10 10 10 10 10 11
11 11 11 11 11 11 11 11 11 11 11 11 10 10 10 10 10 10 10 10 10 10 10 10 10 10 10 10 10 10 10 10 9 9 9 10 10 10 10 10 10 10 10
11 11 11 11 11 11 11 11 11 11 10 10 10 10 10 10 10 9 9 9 9 9 9 9 9 9 10 10 10 9 9 9 9 9 9 9 9 9 9 9 9 9 9
11 11 11 11 11 11 11 11 10 10 10 10 10 10 9 9 9 9 9 9 9 9 9 9 9 9 9 9 8 8 8 8 8 8 8 8 8 8 8 8 8 8 8
11 11 11 11 11 10 10 10 10 10 10 10 9 9 9 9 9 9 9 9 8 8 8 8 8 8 8 8 7 7 7 6 7 7 7 7 7 7 7 7 7 7 7
11 10 10 10 10 10 10 10 10 10 9 9 9 9 9 9 9 8 8 8 8 8 8 8 8 7 7 7 7 6 6 5 5 6 6 6 6 6 6 6 6 6 6
10 10 10 10 10 10 10 10 9 9 9 9 9 9 9 8 8 8 8 8 8 7 7 7 7 7 7 6 6 6 5 5 4 4 5 6 6 6 5 5 5 5 5
10 10 10 9 9 9 9 9 9 9 9 8 8 8 8 8 8 8 7 7 7 7 7 7 6 6 6 6 5 5 5 4 4 3 3 4 4 5 4 4 4 4 5
Wind_Speed
3 5 8 9 9 9 9 9 9 9 9 9 9 9 9 8 8 8 7 7 7 6 6 6 5 4 4 4 4 4 4 4 5 5 6 6 6 6 6 6 6 6 7
6 8 9 9 9 9 9 9 9 8 8 8 8 8 8 8 7 7 7 7 6 6 6 5 5 4 3 2 3 3 2 2 3 3 4 4 4 4 4 5 5 5 6
8 9 9 10 9 9 9 9 8 8 8 7 7 7 7 7 7 6 6 6 6 6 5 5 5 5 4 2 1 1 1 1 1 1 1 2 1 2 3 4 5 5 5
9 9 10 10 10 9 9 9 8 8 7 7 7 7 6 6 6 6 6 6 6 6 6 6 5 4 4 4 2 2 2 2 2 1 1 1 1 2 3 4 4 4 4
9 9 10 11 10 10 9 9 9 9 8 7 7 7 6 6 6 6 6 6 6 6 5 5 5 5 4 4 4 4 4 3 2 2 2 2 3 4 5 5 5 5 4
8 8 9 11 10 10 9 9 8 8 8 8 8 7 7 7 6 6 6 6 6 6 6 5 5 5 5 5 5 5 5 5 3 3 3 3 4 5 6 6 6 6 5
7 9 10 10 10 9 9 8 8 8 8 8 8 7 7 7 7 6 6 6 6 6 6 6 5 6 6 6 6 6 5 5 4 3 4 5 5 6 7 7 7 7 6
8 9 10 10 9 9 9 8 8 8 8 7 7 7 7 8 7 7 6 6 6 6 7 7 6 6 6 7 7 7 7 6 5 5 5 6 7 7 7 8 8 8 7
9 8 8 9 8 8 8 8 8 8 8 8 8 8 8 8 8 8 7 7 7 7 7 7 7 7 7 7 8 8 8 7 6 5 6 6 7 8 8 9 9 9 9
7 7 7 8 8 7 7 8 8 8 8 8 9 9 9 8 8 8 8 8 8 8 8 8 8 8 8 8 8 8 8 7 6 6 6 7 8 9 10 10 10 10 10
6 5 6 6 7 7 6 7 8 8 8 8 8 9 9 8 8 8 8 9 8 9 9 9 9 9 9 9 9 9 7 5 5 6 7 8 10 10 10 11 11 11 11
4 3 4 5 6 7 6 7 8 7 8 9 8 8 7 7 7 7 8 9 9 10 10 10 11 10 9 8 9 8 6 6 4 5 7 9 10 10 11 11 11 12 11
4 3 3 4 5 6 5 6 6 7 8 8 9 8 8 7 7 7 7 8 9 10 9 10 10 9 8 8 8 7 7 5 4 6 7 9 9 10 10 11 11 11 11
4 4 3 4 4 5 5 5 5 5 6 6 7 8 7 5 5 6 5 7 7 8 8 8 7 8 9 9 8 7 7 5 5 5 6 7 8 9 9 9 10 11 11
5 4 3 3 4 4 5 4 5 5 5 6 7 8 7 5 3 4 5 6 7 8 7 6 6 7 7 8 8 7 6 6 5 5 5 6 7 7 8 9 9 9 10
4 4 3 3 3 4 4 3 4 4 5 6 7 7 7 6 5 4 4 5 6 7 7 6 6 5 5 6 6 7 7 6 5 5 4 5 6 6 7 8 8 9 9
4 3 3 4 3 4 3 3 4 4 5 5 6 7 8 7 6 4 3 4 6 7 8 6 6 6 5 6 7 7 5 5 5 4 4 4 5 6 7 7 7 7 7
4 3 3 3 3 3 3 3 3 4 5 5 6 7 8 8 7 5 3 4 7 7 6 4 4 5 5 6 6 6 5 4 4 4 4 4 4 5 6 7 7 7 8
5 4 3 3 3 3 3 3 3 4 5 4 5 6 7 7 7 5 4 5 7 5 4 4 4 4 5 6 6 5 4 4 3 3 4 5 5 6 6 7 8 9 9
4 4 4 3 2 2 3 3 3 3 3 4 4 5 6 6 6 6 4 6 6 3 4 4 4 4 3 5 5 5 4 3 3 3 4 5 6 7 7 7 7 8 10
4 4 4 3 2 2 2 2 1 0 0 1 1 3 4 5 5 5 4 4 4 3 3 4 3 4 4 5 3 4 4 3 3 3 3 4 5 7 7 7 7 7 7
5 5 4 4 3 2 2 2 2 2 1 1 0 2 3 3 4 4 3 2 3 2 4 4 3 3 3 5 3 3 4 4 4 4 4 5 5 6 6 7 7 7 7
5 6 5 4 4 3 3 2 2 1 1 1 1 1 2 2 2 2 3 3 3 2 2 3 3 3 2 3 3 2 1 2 4 3 3 4 5 5 5 5 6 7 8
6 5 5 4 4 4 4 4 4 3 2 2 1 1 1 2 2 2 2 2 2 2 2 3 3 2 1 2 2 2 0 1 2 4 3 4 5 5 5 5 5 7 8
5 4 4 4 4 4 4 5 4 3 3 2 1 1 2 2 2 2 1 2 2 1 1 2 2 2 1 1 1 1 1 1 1 2 4 5 5 4 4 3 3 5 8
3 3 3 4 4 4 4 5 5 5 4 3 3 2 2 2 2 2 1 1 1 1 1 1 1 1 1 1 1 1 1 1 1 2 3 5 5 4 4 2 3 4 7
Wind_Direction
155 137 122 114 107 100 95 89 86 81 76 71 67 64 62 59 54 53 54 52 51 48 49 49 54 61 69 79 80 77 78 80 79 79 79 81 83 86 88 90 85 83 94
148 135 121 115 108 102 97 90 85 82 78 72 67 63 60 56 52 50 48 46 44 42 42 41 39 43 48 67 71 71 79 84 81 84 83 80 83 90 99 102 102 100 101
130 128 121 115 109 102 97 92 85 79 74 69 66 62 56 51 48 45 42 41 37 35 34 30 27 27 24 25 54 47 45 51 57 89 106 100 113 127 127 122 123 113 108
122 120 119 113 108 102 97 92 85 80 74 68 64 57 52 46 44 42 38 37 32 29 27 21 15 11 10 9 352 326 313 303 300 280 210 230 230 210 191 162 152 143 127
107 108 117 113 107 102 98 90 84 78 73 67 61 55 50 45 42 38 36 34 29 22 14 10 5 356 351 346 342 322 298 287 272 237 246 241 236 234 213 192 178 171 166
97 98 107 111 108 103 98 91 84 78 71 65 58 51 46 43 39 36 34 30 25 18 7 358 353 347 338 329 321 320 309 290 262 245 252 246 232 231 223 207 195 191 187
98 88 93 104 107 104 100 93 85 80 73 66 58 51 46 41 37 34 30 26 22 12 3 351 345 339 334 327 321 314 310 310 274 254 251 254 244 237 231 217 207 206 204
103 88 90 94 100 102 99 94 86 79 73 65 57 52 46 41 37 32 26 21 16 9 2 354 343 336 329 325 322 318 307 300 286 262 253 251 247 241 234 224 215 216 214
92 84 77 78 84 91 94 91 84 78 72 62 55 49 44 39 36 34 27 20 12 5 -0 355 346 335 328 324 322 320 313 296 280 260 256 249 245 244 243 236 226 225 224
85 77 71 69 70 77 85 84 80 74 68 59 52 48 45 38 33 31 23 17 12 6 357 351 345 336 327 323 320 319 317 304 283 262 258 251 250 252 251 245 236 233 232
80 68 67 65 62 67 83 79 76 72 64 57 50 47 43 33 28 26 19 16 11 7 1 356 349 342 334 325 322 319 316 304 286 267 259 258 257 258 257 254 245 239 239
95 73 62 63 61 62 71 71 68 67 60 54 47 42 36 32 28 24 18 16 12 7 2 357 353 349 343 332 326 324 316 301 282 268 263 264 263 265 265 260 252 244 242
123 98 69 65 61 59 60 64 57 58 56 50 44 40 37 32 25 22 19 14 10 6 2 356 355 351 344 336 330 323 315 305 290 278 274 272 274 274 271 266 259 251 248
123 111 88 75 67 61 66 63 59 55 51 43 36 37 37 29 20 16 17 11 11 6 359 358 353 347 345 341 334 328 320 313 300 291 281 281 283 283 281 278 270 261 254
127 121 101 88 74 68 66 58 53 49 54 48 42 36 39 33 18 12 11 12 8 6 2 355 352 347 343 340 338 335 328 319 316 306 293 299 298 294 292 286 281 273 265
135 134 115 92 81 78 78 72 57 52 54 50 41 36 40 35 22 18 14 13 8 4 358 350 348 343 339 339 335 333 324 325 325 323 321 319 318 314 306 299 294 287 281
142 136 131 119 94 88 86 78 65 56 61 52 39 36 39 37 32 30 22 13 5 2 1 359 358 354 352 345 333 329 334 338 336 341 338 336 333 334 330 322 313 309 299
139 133 127 119 105 101 100 87 70 62 66 55 44 38 33 34 35 34 29 10 4 9 10 1 3 355 351 343 332 329 336 341 348 4 9 7 1 352 347 345 340 331 321
149 143 134 124 122 120 109 93 79 68 65 56 47 39 30 31 35 37 31 13 11 15 10 0 1 356 343 340 329 327 335 341 347 8 26 30 27 20 12 5 3 355 345
148 144 142 139 138 126 106 86 69 57 57 50 41 37 29 23 29 35 31 18 17 16 7 1 351 352 340 334 329 333 334 341 0 18 21 34 32 28 24 22 20 16 13
147 148 154 154 160 129 115 113 109 110 25 29 24 31 26 18 22 32 26 18 16 16 3 354 348 350 354 350 353 344 343 1 26 23 24 33 29 26 26 25 19 16 10
172 176 174 179 179 172 162 161 167 173 192 212 318 14 17 17 18 25 29 14 9 9 7 4 4 358 352 7 10 351 343 343 5 11 20 29 18 20 23 20 22 19 17
194 197 192 194 193 190 172 142 121 87 30 356 326 320 343 358 7 18 21 23 10 17 4 356 4 12 346 346 20 36 3 308 320 326 5 18 12 8 4 7 19 20 22
212 208 200 198 199 196 174 164 172 181 204 227 229 254 305 332 347 1 18 22 11 8 358 348 9 358 1 335 340 360 287 261 301 313 321 352 358 356 350 355 13 19 18
208 208 210 204 208 202 184 182 182 197 212 228 246 274 292 307 310 327 356 17 0 351 332 338 354 4 9 331 317 314 310 311 298 270 300 322 333 330 336 348 9 13 11
212 213 216 210 221 212 198 194 192 203 212 221 242 254 270 278 287 301 302 334 324 316 307 312 324 352 347 334 316 300 276 278 285 272 280 303 310 308 317 346 14 8 6
Height
1543 1545 1545 1546 1547 1547 1547 1547 1547 1547 1547 1547 1547 1547 1546 1546 1545 1545 1545 1544 1544 1543 1543 1543 1542 1542 1541 1541 1541 1541 1540 1540 1540 1540 1539 1539 1539 1539 1539 1539 1539 1539 1539
1542 1544 1545 1546 1546 1547 1547 1547 1547 1547 1547 1546 1546 1546 1546 1545 1545 1545 1544 1544 1544 1543 1543 1542 1542 1542 1541 1541 1541 1540 1540 1540 1540 1540 1539 1539 1539 1539 1539 1539 1539 1539 1539
1541 1543 1544 1545 1546 1546 1546 1546 1546 1546 1546 1546 1546 1545 1545 1545 1544 1544 1544 1543 1543 1543 1542 1542 1542 1541 1541 1540 1540 1540 1540 1540 1539 1539 1539 1539 1539 1539 1539 1539 1539 1539 1539
1541 1542 1544 1544 1545 1545 1546 1546 1546 1546 1545 1545 1545 1545 1544 1544 1544 1543 1543 1542 1542 1542 1541 1541 1541 1540 1540 1540 1540 1539 1539 1539 1539 1539 1539 1539 1539 1539 1539 1539 1539 1539 1538
1541 1542 1543 1544 1545 1545 1545 1545 1545 1545 1545 1545 1544 1544 1544 1543 1543 1542 1542 1541 1541 1541 1540 1540 1540 1539 1539 1539 1539 1539 1538 1538 1538 1538 1538 1538 1538 1538 1538 1538 1538 1538 1538
1541 1542 1543 1544 1544 1545 1545 1545 1545 1545 1544 1544 1544 1544 1543 1542 1542 1541 1541 1540 1540 1539 1539 1539 1538 1538 1538 1538 1537 1537 1537 1537 1537 1537 1537 1537 1537 1537 1537 1537 1537 1537 1537
1541 1542 1543 1543 1544 1544 1544 1545 1544 1544 1544 1544 1543 1543 1542 1542 1541 1540 1540 1539 1538 1538 1538 1537 1537 1536 1536 1536 1536 1536 1536 1535 1535 1535 1536 1536 1536 1536 1536 1536 1536 1536 1536
1541 1541 1542 1543 1543 1544 1544 1544 1544 1544 1543 1543 1543 1542 1541 1541 1540 1539 1539 1538 1537 1537 1536 1536 1535 1535 1534 1534 1534 1534 1534 1534 1533 1534 1534 1534 1534 1535 1534 1535 1534 1535 1535
1540 1541 1542 1542 1543 1543 1543 1543 1543 1543 1543 1542 1542 1541 1540 1540 1539 1538 1538 1537 1536 1535 1535 1534 1533 1533 1532 1532 1532 1532 1531 1531 1531 1532 1532 1532 1533 1533 1533 1533 1533 1533 1533
1540 1541 1541 1542 1542 1542 1543 1542 1542 1542 1542 1541 1541 1540 1540 1539 1538 1537 1537 1536 1535 1534 1533 1532 1532 1531 1531 1530 1530 1529 1529 1529 1529 1529 1529 1530 1530 1530 1530 1530 1530 1531 1531
1540 1540 1541 1541 1542 1542 1542 1542 1542 1541 1541 1541 1540 1539 1539 1538 1537 1536 1535 1534 1534 1533 1532 1531 1530 1529 1529 1528 1528 1527 1527 1526 1526 1527 1527 1527 1527 1527 1528 1528 1528 1528 1528
1539 1540 1540 1541 1541 1541 1541 1541 1541 1541 1540 1540 1539 1538 1538 1537 1536 1535 1534 1533 1532 1531 1530 1529 1528 1527 1527 1526 1525 1525 1524 1524 1524 1524 1524 1524 1524 1524 1524 1525 1525 1525 1525
1538 1539 1539 1540 1540 1540 1540 1540 1540 1540 1539 1539 1538 1537 1537 1536 1535 1534 1533 1532 1531 1529 1528 1527 1526 1525 1525 1524 1523 1522 1522 1522 1521 1521 1521 1521 1521 1521 1521 1521 1521 1521 1522
1537 1538 1538 1539 1539 1539 1539 1539 1539 1539 1538 1538 1537 1536 1535 1534 1533 1532 1531 1530 1529 1527 1526 1525 1524 1523 1523 1522 1521 1520 1519 1519 1518 1518 1518 1518 1518 1518 1518 1518 1518 1518 1518
1536 1537 1538 1538 1538 1538 1538 1538 1538 1537 1537 1537 1536 1535 1534 1533 1532 1531 1529 1528 1527 1526 1524 1523 1522 1521 1520 1519 1518 1517 1516 1516 1515 1515 1515 1515 1514 1514 1514 1514 1514 1514 1514
1536 1536 1537 1537 1537 1537 1537 1537 1537 1536 1536 1535 1535 1534 1533 1532 1531 1529 1528 1527 1525 1524 1523 1521 1520 1519 1518 1517 1516 1514 1514 1513 1512 1512 1511 1511 1511 1511 1511 1511 1511 1511 1510
1535 1535 1536 1536 1536 1536 1536 1536 1535 1535 1534 1534 1533 1533 1532 1531 1529 1528 1526 1525 1524 1522 1521 1520 1518 1517 1516 1514 1513 1512 1511 1510 1509 1509 1508 1508 1507 1507 1507 1507 1507 1507 1507
1534 1534 1534 1535 1534 1535 1535 1534 1534 1534 1533 1532 1532 1531 1530 1529 1528 1527 1525 1524 1522 1521 1519 1518 1516 1514 1513 1512 1510 1509 1508 1507 1506 1506 1505 1505 1504 1503 1503 1503 1502 1502 1502
1533 1533 1533 1533 1533 1533 1533 1533 1533 1532 1531 1531 1531 1530 1529 1528 1527 1525 1524 1522 1521 1519 1517 1516 1514 1512 1510 1509 1508 1507 1506 1505 1504 1503 1502 1502 1501 1501 1500 1499 1499 1498 1498
1531 1532 1532 1532 1532 1532 1532 1531 1531 1531 1530 1530 1529 1528 1527 1527 1525 1524 1523 1521 1519 1518 1516 1514 1512 1510 1509 1507 1505 1504 1503 1502 1501 1500 1499 1499 1498 1498 1497 1496 1495 1495 1494
1530 1531 1531 1531 1531 1531 1530 1530 1530 1529 1529 1529 1528 1527 1526 1525 1524 1522 1521 1520 1518 1516 1514 1512 1511 1509 1507 1505 1504 1502 1501 1500 1499 1498 1497 1496 1496 1495 1494 1493 1492 1491 1490
1529 1529 1529 1529 1529 1529 1529 1529 1528 1528 1527 1526 1526 1525 1525 1523 1522 1521 1519 1518 1516 1514 1513 1511 1509 1507 1505 1504 1502 1500 1499 1499 1497 1496 1495 1494 1493 1493 1491 1490 1489 1488 1487
1527 1527 1527 1527 1528 1527 1527 1527 1526 1526 1525 1525 1524 1524 1523 1522 1520 1519 1517 1516 1514 1513 1511 1509 1508 1506 1504 1503 1502 1501 1499 1497 1495 1494 1493 1492 1491 1490 1489 1487 1486 1484 1483
1525 1525 1525 1525 1525 1525 1525 1525 1524 1523 1523 1523 1522 1521 1520 1519 1518 1517 1515 1514 1512 1511 1509 1508 1506 1504 1503 1501 1500 1499 1499 1497 1496 1492 1491 1490 1489 1488 1486 1484 1483 1481 1480
1523 1523 1523 1523 1523 1523 1522 1522 1522 1521 1520 1520 1519 1518 1517 1517 1515 1514 1513 1511 1510 1508 1507 1505 1504 1502 1501 1499 1498 1497 1496 1495 1494 1492 1488 1487 1486 1485 1483 1482 1480 1478 1477
1521 1521 1521 1520 1520 1520 1520 1520 1519 1518 1517 1517 1516 1515 1514 1513 1512 1511 1510 1508 1507 1506 1505 1503 1501 1500 1498 1497 1496 1494 1493 1492 1491 1490 1487 1484 1482 1481 1480 1478 1477 1475 1473